| time (UTC) | temp F | wind direction | speed MPH | gust MPH | rain 1hr in | rain 24hr in | rain mn in | humidity % | barometer mb |
| 20260508102502 | 61 | 165 | 1.0 | 3.0 | 0.00 | 0.00 | 0.00 | 1014.6 | |
| 20260508102003 | 61 | 199 | 2.0 | 4.0 | 0.00 | 0.00 | 0.00 | 1014.9 | |
| 20260508101504 | 61 | 206 | 3.0 | 4.0 | 0.00 | 0.00 | 0.00 | 1015.3 | |
| 20260508101002 | 61 | 217 | 0.0 | 3.0 | 0.00 | 0.00 | 0.00 | 1015.3 | |
| 20260508100503 | 61 | 99 | 0.0 | 3.0 | 0.00 | 0.00 | 0.00 | 1015.3 | |
| 20260508100003 | 61 | 143 | 2.0 | 3.0 | 0.00 | 0.00 | 0.00 | 1014.9 | |
| 20260508095502 | 61 | 256 | 0.0 | 2.0 | 0.00 | 0.00 | 0.00 | 1014.9 | |
| 20260508095002 | 61 | 268 | 1.0 | 4.0 | 0.00 | 0.00 | 0.00 | 1015.3 | |
| 20260508094502 | 61 | 158 | 1.0 | 4.0 | 0.00 | 0.00 | 0.00 | 1014.6 | |
| 20260508094003 | 61 | 184 | 1.0 | 4.0 | 0.00 | 0.00 | 0.00 | 1014.3 | |
| 20260508093503 | 61 | 118 | 2.0 | 4.0 | 0.00 | 0.00 | 0.00 | 1014.6 | |
| 20260508093004 | 61 | 109 | 2.0 | 3.0 | 0.00 | 0.00 | 0.00 | 1014.9 | |
| 20260508092502 | 61 | 88 | 1.0 | 2.0 | 0.00 | 0.00 | 0.00 | 1014.6 | |
| 20260508092002 | 61 | 269 | 0.0 | 3.0 | 0.00 | 0.00 | 0.00 | 1014.6 | |
| 20260508091502 | 60 | 151 | 0.0 | 3.0 | 0.00 | 0.00 | 0.00 | 1014.6 | |
| 20260508091002 | 60 | 109 | 1.0 | 3.0 | 0.00 | 0.00 | 0.00 | 1014.9 | |
| 20260508090502 | 60 | 97 | 1.0 | 3.0 | 0.00 | 0.00 | 0.00 | 1014.9 | |
| 20260508090002 | 60 | 93 | 2.0 | 3.0 | 0.00 | 0.00 | 0.00 | 1014.6 | |
| 20260508085523 | 60 | 84 | 2.0 | 3.0 | 0.00 | 0.00 | 0.00 | 1014.9 | |
| 20260508085024 | 60 | 106 | 2.0 | 3.0 | 0.00 | 0.00 | 0.00 | 1014.6 | |
| 20260508084502 | 60 | 133 | 1.0 | 5.0 | 0.00 | 0.00 | 0.00 | 1014.6 | |
| 20260508084003 | 61 | 161 | 2.0 | 5.0 | 0.00 | 0.00 | 0.00 | 1014.9 | |
| 20260508083503 | 60 | 189 | 2.0 | 7.0 | 0.00 | 0.00 | 0.00 | 1014.6 | |
| 20260508083025 | 60 | 205 | 1.0 | 7.0 | 0.00 | 0.00 | 0.00 | 1015.3 | |
| 20260508082502 | 60 | 221 | 4.0 | 5.0 | 0.00 | 0.00 | 0.00 | 1016.0 | |
| 20260508082002 | 60 | 218 | 3.0 | 4.0 | 0.00 | 0.00 | 0.00 | 1015.6 | |
| 20260508081503 | 60 | 217 | 2.0 | 5.0 | 0.00 | 0.00 | 0.00 | 1016.0 | |
| 20260508081002 | 60 | 227 | 3.0 | 5.0 | 0.00 | 0.00 | 0.00 | 1015.6 | |
| 20260508080502 | 60 | 191 | 2.0 | 4.0 | 0.00 | 0.00 | 0.00 | 1016.3 | |
| 20260508080003 | 60 | 220 | 2.0 | 6.0 | 0.00 | 0.00 | 0.00 | 1016.3 | |
| 20260508075502 | 60 | 228 | 2.0 | 6.0 | 0.00 | 0.00 | 0.00 | 1016.3 | |
| 20260508075024 | 60 | 222 | 2.0 | 5.0 | 0.00 | 0.00 | 0.00 | 1015.6 | |
| 20260508074503 | 60 | 186 | 2.0 | 7.0 | 0.00 | 0.00 | 0.00 | 1016.0 | |
| 20260508074002 | 60 | 215 | 3.0 | 7.0 | 0.00 | 0.00 | 0.00 | 1015.6 | |
| 20260508073503 | 60 | 213 | 2.0 | 5.0 | 0.00 | 0.00 | 0.00 | 1015.6 | |
| 20260508073002 | 60 | 188 | 3.0 | 5.0 | 0.00 | 0.00 | 0.00 | 1015.6 | |
| 20260508072524 | 60 | 164 | 2.0 | 5.0 | 0.00 | 0.00 | 0.00 | 1016.0 | |
| 20260508072024 | 60 | 175 | 3.0 | 5.0 | 0.00 | 0.00 | 0.00 | 1016.0 | |
| 20260508071503 | 60 | 179 | 3.0 | 5.0 | 0.00 | 0.00 | 0.00 | 1016.3 | |
| 20260508071002 | 60 | 168 | 3.0 | 5.0 | 0.00 | 0.00 | 0.00 | 1016.0 | |
| 20260508070503 | 60 | 169 | 3.0 | 5.0 | 0.00 | 0.00 | 0.00 | 1016.3 | |
| 20260508070003 | 60 | 139 | 2.0 | 5.0 | 0.00 | 0.00 | 0.00 | 1015.6 | |
| 20260508065503 | 60 | 152 | 2.0 | 5.0 | 0.00 | 0.00 | 0.00 | 1016.0 | |
| 20260508065003 | 60 | 166 | 2.0 | 7.0 | 0.00 | 0.00 | 0.00 | 1016.0 | |
| 20260508064524 | 60 | 163 | 2.0 | 7.0 | 0.00 | 0.00 | 0.00 | 1016.0 | |
| 20260508064002 | 60 | 176 | 3.0 | 7.0 | 0.00 | 0.00 | 0.00 | 1015.6 | |
| 20260508063525 | 60 | 168 | 4.0 | 7.0 | 0.00 | 0.00 | 0.00 | 1015.3 | |
| 20260508063003 | 60 | 159 | 4.0 | 7.0 | 0.00 | 0.00 | 0.00 | 1015.6 | |
| 20260508062502 | 60 | 146 | 3.0 | 7.0 | 0.00 | 0.00 | 0.00 | 1015.6 | |
| 20260508062002 | 60 | 164 | 4.0 | 7.0 | 0.00 | 0.00 | 0.00 | 1015.3 | |
| 20260508061502 | 60 | 162 | 3.0 | 7.0 | 0.00 | 0.00 | 0.00 | 1015.6 | |
| 20260508061002 | 60 | 149 | 2.0 | 6.0 | 0.00 | 0.00 | 0.00 | 1015.6 | |
| 20260508060523 | 60 | 175 | 3.0 | 8.0 | 0.00 | 0.00 | 0.00 | 1015.6 | |
| 20260508060002 | 60 | 150 | 4.0 | 9.0 | 0.00 | 0.00 | 0.00 | 1015.6 | |
| 20260508055524 | 61 | 164 | 4.0 | 9.0 | 0.00 | 0.00 | 0.00 | 1014.9 | |
| 20260508055003 | 61 | 149 | 4.0 | 7.0 | 0.00 | 0.00 | 0.00 | 1015.6 | |
| 20260508054502 | 61 | 126 | 3.0 | 7.0 | 0.00 | 0.00 | 0.00 | 1015.3 | |
| 20260508054002 | 61 | 147 | 3.0 | 7.0 | 0.00 | 0.00 | 0.00 | 1015.6 | |
| 20260508053525 | 61 | 143 | 3.0 | 6.0 | 0.00 | 0.00 | 0.00 | 1016.0 | |
| 20260508053003 | 61 | 129 | 3.0 | 7.0 | 0.00 | 0.00 | 0.00 | 1015.3 | |
| 20260508052503 | 61 | 131 | 3.0 | 8.0 | 0.00 | 0.00 | 0.00 | 1015.3 | |
| 20260508052003 | 62 | 153 | 3.0 | 8.0 | 0.00 | 0.00 | 0.00 | 1015.6 | |
| 20260508051502 | 62 | 160 | 4.0 | 8.0 | 0.00 | 0.00 | 0.00 | 1015.6 | |
| 20260508051024 | 62 | 125 | 3.0 | 8.0 | 0.00 | 0.00 | 0.00 | 1016.0 | |
| 20260508050524 | 62 | 164 | 5.0 | 8.0 | 0.00 | 0.00 | 0.00 | 1016.0 | |
| 20260508050003 | 62 | 167 | 3.0 | 8.0 | 0.00 | 0.00 | 0.00 | 1016.0 | |
| 20260508045503 | 62 | 141 | 3.0 | 7.0 | 0.00 | 0.00 | 0.00 | 1015.3 | |
| 20260508045024 | 62 | 135 | 3.0 | 6.0 | 0.00 | 0.00 | 0.00 | 1014.9 | |
| 20260508044502 | 62 | 132 | 2.0 | 6.0 | 0.00 | 0.00 | 0.00 | 1015.6 | |
| 20260508044002 | 62 | 165 | 3.0 | 6.0 | 0.00 | 0.00 | 0.00 | 1015.3 | |
| 20260508043502 | 62 | 148 | 3.0 | 7.0 | 0.00 | 0.00 | 0.00 | 1015.6 | |
| 20260508043024 | 62 | 173 | 4.0 | 7.0 | 0.00 | 0.00 | 0.00 | 1015.3 | |
| 20260508042502 | 63 | 160 | 3.0 | 7.0 | 0.00 | 0.00 | 0.00 | 1015.3 | |
| 20260508042003 | 63 | 164 | 3.0 | 7.0 | 0.00 | 0.00 | 0.00 | 1015.3 | |
| 20260508041504 | 63 | 112 | 3.0 | 6.0 | 0.00 | 0.00 | 0.00 | 1014.9 | |
| 20260508041003 | 63 | 137 | 2.0 | 5.0 | 0.00 | 0.00 | 0.00 | 1015.6 | |
| 20260508040503 | 63 | 161 | 3.0 | 5.0 | 0.00 | 0.00 | 0.00 | 1015.3 | |
| 20260508040003 | 63 | 175 | 3.0 | 5.0 | 0.00 | 0.00 | 0.00 | 1015.3 | |
| 20260508035503 | 63 | 125 | 2.0 | 6.0 | 0.00 | 0.00 | 0.00 | 1015.3 | |
| 20260508035003 | 64 | 166 | 3.0 | 6.0 | 0.00 | 0.00 | 0.00 | 1014.9 | |
| 20260508034504 | 64 | 189 | 3.0 | 5.0 | 0.00 | 0.00 | 0.00 | 1015.3 | |
| 20260508034002 | 64 | 170 | 3.0 | 5.0 | 0.00 | 0.00 | 0.00 | 1014.9 | |
| 20260508033503 | 64 | 183 | 3.0 | 7.0 | 0.00 | 0.00 | 0.00 | 1014.6 | |
| 20260508033002 | 64 | 167 | 3.0 | 7.0 | 0.00 | 0.00 | 0.00 | 1014.3 | |
| 20260508032503 | 64 | 166 | 3.0 | 5.0 | 0.00 | 0.00 | 0.00 | 1014.3 | |
| 20260508032002 | 64 | 159 | 3.0 | 8.0 | 0.00 | 0.00 | 0.00 | 1014.3 | |
| 20260508031502 | 65 | 157 | 4.0 | 9.0 | 0.00 | 0.00 | 0.00 | 1013.9 | |
| 20260508031002 | 65 | 174 | 4.0 | 9.0 | 0.00 | 0.00 | 0.00 | 1014.3 | |
| 20260508030503 | 65 | 170 | 5.0 | 9.0 | 0.00 | 0.00 | 0.00 | 1013.9 | |
| 20260508030003 | 65 | 183 | 5.0 | 9.0 | 0.00 | 0.00 | 0.00 | 1014.3 | |
| 20260508025502 | 65 | 155 | 4.0 | 9.0 | 0.00 | 0.00 | 0.00 | 1013.9 | |
| 20260508025024 | 66 | 167 | 5.0 | 11.0 | 0.00 | 0.00 | 0.00 | 1013.9 | |
| 20260508024502 | 67 | 170 | 6.0 | 11.0 | 0.00 | 0.00 | 0.00 | 1014.3 | |
| 20260508024025 | 67 | 183 | 5.0 | 10.0 | 0.00 | 0.00 | 0.00 | 1013.9 | |
| 20260508023503 | 67 | 190 | 3.0 | 9.0 | 0.00 | 0.00 | 0.00 | 1013.9 | |
| 20260508023002 | 68 | 173 | 4.0 | 10.0 | 0.00 | 0.00 | 0.00 | 1013.6 | |
| 20260508022504 | 68 | 172 | 5.0 | 10.0 | 0.00 | 0.00 | 0.00 | 1013.9 | |
| 20260508022003 | 69 | 159 | 5.0 | 10.0 | 0.00 | 0.00 | 0.00 | 1013.9 | |
| 20260508021502 | 70 | 165 | 6.0 | 10.0 | 0.00 | 0.00 | 0.00 | 1013.9 | |
| 20260508021003 | 71 | 187 | 5.0 | 10.0 | 0.00 | 0.00 | 0.00 | 1013.6 | |
| 20260508020503 | 71 | 158 | 4.0 | 12.0 | 0.00 | 0.00 | 0.00 | 1013.9 | |
| 20260508020003 | 72 | 175 | 5.0 | 12.0 | 0.00 | 0.00 | 0.00 | 1013.6 | |
| 20260508015505 | 73 | 162 | 4.0 | 10.0 | 0.00 | 0.00 | 0.00 | 1014.3 | |
| 20260508015002 | 74 | 172 | 6.0 | 9.0 | 0.00 | 0.00 | 0.00 | 1013.9 | |
| 20260508014503 | 74 | 183 | 5.0 | 9.0 | 0.00 | 0.00 | 0.00 | 1013.9 | |
| 20260508014003 | 74 | 195 | 6.0 | 10.0 | 0.00 | 0.00 | 0.00 | 1013.6 | |
| 20260508013524 | 75 | 177 | 5.0 | 11.0 | 0.00 | 0.00 | 0.00 | 1013.6 | |
| 20260508013003 | 75 | 169 | 5.0 | 11.0 | 0.00 | 0.00 | 0.00 | 1013.9 | |
| 20260508012524 | 75 | 172 | 6.0 | 10.0 | 0.00 | 0.00 | 0.00 | 1013.9 | |
| 20260508012024 | 75 | 174 | 7.0 | 10.0 | 0.00 | 0.00 | 0.00 | 1013.6 | |
| 20260508011503 | 75 | 173 | 4.0 | 9.0 | 0.00 | 0.00 | 0.00 | 1013.2 | |
| 20260508011002 | 75 | 208 | 5.0 | 10.0 | 0.00 | 0.00 | 0.00 | 1013.6 | |
| 20260508010503 | 75 | 211 | 6.0 | 11.0 | 0.00 | 0.00 | 0.00 | 1013.2 | |
| 20260508010025 | 75 | 184 | 5.0 | 11.0 | 0.00 | 0.00 | 0.00 | 1012.9 | |
| 20260508005502 | 75 | 191 | 6.0 | 11.0 | 0.00 | 0.00 | 0.00 | 1013.9 | |
| 20260508005004 | 75 | 180 | 6.0 | 12.0 | 0.00 | 0.00 | 0.00 | 1013.9 | |
| 20260508004503 | 75 | 182 | 6.0 | 12.0 | 0.00 | 0.00 | 0.00 | 1013.6 | |
| 20260508004002 | 75 | 207 | 6.0 | 12.0 | 0.00 | 0.00 | 0.00 | 1013.6 | |
| 20260508003503 | 75 | 206 | 6.0 | 12.0 | 0.00 | 0.00 | 0.00 | 1012.9 | |
| 20260508003023 | 75 | 214 | 6.0 | 12.0 | 0.00 | 0.00 | 0.00 | 1013.2 | |
| 20260508002503 | 76 | 202 | 6.0 | 12.0 | 0.00 | 0.00 | 0.00 | 1012.6 | |
| 20260508002024 | 76 | 178 | 8.0 | 12.0 | 0.00 | 0.00 | 0.00 | 1012.9 | |
| 20260508001503 | 76 | 183 | 6.0 | 11.0 | 0.00 | 0.00 | 0.00 | 1012.6 | |
| 20260508001003 | 76 | 193 | 7.0 | 12.0 | 0.00 | 0.00 | 0.00 | 1012.6 | |
| 20260508000502 | 76 | 180 | 7.0 | 12.0 | 0.00 | 0.00 | 0.00 | 1012.9 | |
| 20260508000024 | 78 | 211 | 6.0 | 11.0 | 0.00 | 0.00 | 0.00 | 1012.9 | |
| 20260507235503 | 78 | 182 | 6.0 | 10.0 | 0.00 | 0.00 | 0.00 | 1013.6 | |
| 20260507235002 | 78 | 209 | 6.0 | 10.0 | 0.00 | 0.00 | 0.00 | 1013.6 | |
| 20260507234504 | 78 | 175 | 7.0 | 12.0 | 0.00 | 0.00 | 0.00 | 1012.6 | |
| 20260507234003 | 77 | 173 | 7.0 | 12.0 | 0.00 | 0.00 | 0.00 | 1013.2 | |
| 20260507233504 | 77 | 188 | 6.0 | 11.0 | 0.00 | 0.00 | 0.00 | 1013.6 | |
| 20260507233005 | 77 | 184 | 6.0 | 11.0 | 0.00 | 0.00 | 0.00 | 1013.2 | |
| 20260507232503 | 77 | 163 | 6.0 | 11.0 | 0.00 | 0.00 | 0.00 | 1013.6 | |
| 20260507232003 | 77 | 180 | 4.0 | 11.0 | 0.00 | 0.00 | 0.00 | 1013.6 | |
| 20260507231503 | 77 | 197 | 6.0 | 12.0 | 0.00 | 0.00 | 0.00 | 1013.6 | |
| 20260507231002 | 77 | 206 | 5.0 | 12.0 | 0.00 | 0.00 | 0.00 | 1012.6 | |
| 20260507230503 | 77 | 161 | 5.0 | 12.0 | 0.00 | 0.00 | 0.00 | 1012.9 | |
| 20260507230002 | 76 | 195 | 6.0 | 12.0 | 0.00 | 0.00 | 0.00 | 1013.2 | |
| 20260507225503 | 76 | 167 | 8.0 | 12.0 | 0.00 | 0.00 | 0.00 | 1013.6 | |
| 20260507225003 | 76 | 214 | 5.0 | 11.0 | 0.00 | 0.00 | 0.00 | 1013.6 | |
| 20260507224502 | 76 | 180 | 6.0 | 13.0 | 0.00 | 0.00 | 0.00 | 1013.6 | |
| 20260507224003 | 76 | 186 | 5.0 | 13.0 | 0.00 | 0.00 | 0.00 | 1012.6 | |
| 20260507223525 | 75 | 187 | 6.0 | 13.0 | 0.00 | 0.00 | 0.00 | 1012.6 | |
| 20260507223004 | 75 | 168 | 6.0 | 12.0 | 0.00 | 0.00 | 0.00 | 1013.2 | |
| 20260507222502 | 75 | 198 | 5.0 | 13.0 | 0.00 | 0.00 | 0.00 | 1013.6 | |
| 20260507222024 | 75 | 213 | 7.0 | 13.0 | 0.00 | 0.00 | 0.00 | 1013.9 | |
| 20260507221504 | 75 | 188 | 6.0 | 13.0 | 0.00 | 0.00 | 0.00 | 1013.6 | |
| 20260507221024 | 74 | 191 | 7.0 | 13.0 | 0.00 | 0.00 | 0.00 | 1013.6 | |
| 20260507220502 | 75 | 202 | 5.0 | 11.0 | 0.00 | 0.00 | 0.00 | 1013.6 | |
| 20260507220024 | 75 | 201 | 7.0 | 12.0 | 0.00 | 0.00 | 0.00 | 1013.6 | |
| 20260507215503 | 74 | 219 | 8.0 | 12.0 | 0.00 | 0.00 | 0.00 | 1014.3 | |
| 20260507215002 | 74 | 214 | 8.0 | 13.0 | 0.00 | 0.00 | 0.00 | 1013.9 | |
| 20260507214525 | 74 | 215 | 7.0 | 13.0 | 0.00 | 0.00 | 0.00 | 1013.9 | |
| 20260507214004 | 75 | 229 | 7.0 | 12.0 | 0.00 | 0.00 | 0.00 | 1014.3 | |
| 20260507213502 | 75 | 196 | 5.0 | 12.0 | 0.00 | 0.00 | 0.00 | 1013.6 | |
| 20260507213002 | 74 | 206 | 6.0 | 11.0 | 0.00 | 0.00 | 0.00 | 1013.6 | |
| 20260507212502 | 73 | 215 | 6.0 | 13.0 | 0.00 | 0.00 | 0.00 | 1013.6 | |
| 20260507212003 | 73 | 220 | 6.0 | 14.0 | 0.00 | 0.00 | 0.00 | 1013.6 | |
| 20260507211503 | 74 | 235 | 6.0 | 15.0 | 0.00 | 0.00 | 0.00 | 1013.6 | |
| 20260507211024 | 74 | 223 | 7.0 | 15.0 | 0.00 | 0.00 | 0.00 | 1014.3 | |
| 20260507210504 | 74 | 212 | 8.0 | 15.0 | 0.00 | 0.00 | 0.00 | 1013.9 | |
| 20260507210025 | 73 | 227 | 8.0 | 15.0 | 0.00 | 0.00 | 0.00 | 1013.6 | |
| 20260507205524 | 74 | 207 | 6.0 | 13.0 | 0.00 | 0.00 | 0.00 | 1013.9 | |
| 20260507205003 | 73 | 192 | 7.0 | 15.0 | 0.00 | 0.00 | 0.00 | 1013.9 | |
| 20260507204502 | 72 | 215 | 8.0 | 15.0 | 0.00 | 0.00 | 0.00 | 1014.3 | |
| 20260507204024 | 73 | 227 | 7.0 | 12.0 | 0.00 | 0.00 | 0.00 | 1014.6 | |
| 20260507203504 | 71 | 227 | 8.0 | 14.0 | 0.00 | 0.00 | 0.00 | 1014.3 | |
| 20260507203003 | 71 | 235 | 8.0 | 14.0 | 0.00 | 0.00 | 0.00 | 1013.9 | |
| 20260507202503 | 72 | 218 | 8.0 | 14.0 | 0.00 | 0.00 | 0.00 | 1014.3 | |
| 20260507202025 | 73 | 230 | 10.0 | 14.0 | 0.00 | 0.00 | 0.00 | 1014.6 | |
| 20260507201502 | 73 | 214 | 5.0 | 11.0 | 0.00 | 0.00 | 0.00 | 1014.3 | |
| 20260507201004 | 73 | 211 | 7.0 | 11.0 | 0.00 | 0.00 | 0.00 | 1014.3 | |
| 20260507200524 | 72 | 221 | 5.0 | 13.0 | 0.00 | 0.00 | 0.00 | 1014.9 | |
| 20260507200002 | 72 | 217 | 6.0 | 13.0 | 0.00 | 0.00 | 0.00 | 1014.6 | |
| 20260507195502 | 73 | 191 | 6.0 | 12.0 | 0.00 | 0.00 | 0.00 | 1014.9 | |
| 20260507195003 | 73 | 212 | 7.0 | 14.0 | 0.00 | 0.00 | 0.00 | 1014.6 | |
| 20260507194503 | 73 | 201 | 6.0 | 14.0 | 0.00 | 0.00 | 0.00 | 1014.3 | |
| 20260507194004 | 73 | 214 | 6.0 | 12.0 | 0.00 | 0.00 | 0.00 | 1014.3 | |
| 20260507193503 | 73 | 211 | 4.0 | 11.0 | 0.00 | 0.00 | 0.00 | 1014.6 | |
| 20260507193003 | 72 | 203 | 5.0 | 12.0 | 0.00 | 0.00 | 0.00 | 1014.9 | |
| 20260507192503 | 72 | 227 | 8.0 | 12.0 | 0.00 | 0.00 | 0.00 | 1014.9 | |
| 20260507192002 | 72 | 221 | 4.0 | 10.0 | 0.00 | 0.00 | 0.00 | 1014.6 | |
| 20260507191503 | 72 | 206 | 4.0 | 12.0 | 0.00 | 0.00 | 0.00 | 1014.9 | |
| 20260507191003 | 71 | 229 | 7.0 | 12.0 | 0.00 | 0.00 | 0.00 | 1013.9 | |
| 20260507190502 | 73 | 215 | 6.0 | 10.0 | 0.00 | 0.00 | 0.00 | 1014.6 | |
| 20260507190004 | 73 | 164 | 4.0 | 9.0 | 0.00 | 0.00 | 0.00 | 1014.6 | |
| 20260507185524 | 72 | 186 | 5.0 | 12.0 | 0.00 | 0.00 | 0.00 | 1014.9 | |
| 20260507185002 | 72 | 181 | 7.0 | 12.0 | 0.00 | 0.00 | 0.00 | 1014.6 | |
| 20260507184503 | 71 | 236 | 7.0 | 10.0 | 0.00 | 0.00 | 0.00 | 1014.6 | |
| 20260507184003 | 72 | 210 | 4.0 | 9.0 | 0.00 | 0.00 | 0.00 | 1015.3 | |
| 20260507183502 | 72 | 177 | 5.0 | 12.0 | 0.00 | 0.00 | 0.00 | 1014.9 | |
| 20260507183003 | 70 | 190 | 5.0 | 12.0 | 0.00 | 0.00 | 0.00 | 1015.3 | |
| 20260507182502 | 70 | 209 | 4.0 | 10.0 | 0.00 | 0.00 | 0.00 | 1015.3 | |
| 20260507182003 | 71 | 225 | 6.0 | 10.0 | 0.00 | 0.00 | 0.00 | 1015.3 | |
| 20260507181503 | 72 | 175 | 2.0 | 10.0 | 0.00 | 0.00 | 0.00 | 1014.9 | |
| 20260507181025 | 71 | 158 | 4.0 | 9.0 | 0.00 | 0.00 | 0.00 | 1015.3 | |
| 20260507180526 | 71 | 207 | 4.0 | 9.0 | 0.00 | 0.00 | 0.00 | 1014.3 | |
| 20260507180002 | 70 | 195 | 5.0 | 11.0 | 0.00 | 0.00 | 0.00 | 1014.9 | |
| 20260507175503 | 70 | 203 | 4.0 | 11.0 | 0.00 | 0.00 | 0.00 | 1014.9 | |
| 20260507175003 | 70 | 236 | 5.0 | 11.0 | 0.00 | 0.00 | 0.00 | 1016.0 | |
| 20260507174503 | 71 | 194 | 5.0 | 11.0 | 0.00 | 0.00 | 0.00 | 1014.9 | |
| 20260507174002 | 70 | 178 | 5.0 | 11.0 | 0.00 | 0.00 | 0.00 | 1014.9 | |
| 20260507173503 | 70 | 184 | 3.0 | 10.0 | 0.00 | 0.00 | 0.00 | 1014.6 | |
| 20260507173003 | 69 | 210 | 3.0 | 10.0 | 0.00 | 0.00 | 0.00 | 1014.9 | |
| 20260507172502 | 68 | 224 | 5.0 | 10.0 | 0.00 | 0.00 | 0.00 | 1014.6 | |
| 20260507172003 | 67 | 246 | 4.0 | 7.0 | 0.00 | 0.00 | 0.00 | 1014.9 | |
| 20260507171503 | 67 | 276 | 4.0 | 7.0 | 0.00 | 0.00 | 0.00 | 1014.6 | |
| 20260507171002 | 68 | 229 | 5.0 | 7.0 | 0.00 | 0.00 | 0.00 | 1014.9 | |
| 20260507170503 | 67 | 221 | 3.0 | 7.0 | 0.00 | 0.00 | 0.00 | 1014.9 | |
| 20260507170003 | 67 | 223 | 4.0 | 7.0 | 0.00 | 0.00 | 0.00 | 1014.6 | |
| 20260507165502 | 66 | 248 | 2.0 | 7.0 | 0.00 | 0.00 | 0.00 | 1014.9 | |
| 20260507165003 | 65 | 224 | 1.0 | 6.0 | 0.00 | 0.00 | 0.00 | 1014.9 | |
| 20260507164523 | 66 | 243 | 3.0 | 6.0 | 0.00 | 0.00 | 0.00 | 1014.6 | |
| 20260507164004 | 66 | 130 | 2.0 | 5.0 | 0.00 | 0.00 | 0.00 | 1015.3 | |
| 20260507163502 | 65 | 186 | 3.0 | 4.0 | 0.00 | 0.00 | 0.00 | 1015.3 | |
| 20260507163024 | 65 | 325 | 3.0 | 4.0 | 0.00 | 0.00 | 0.00 | 1014.9 | |
| 20260507162524 | 65 | 20 | 1.0 | 5.0 | 0.00 | 0.00 | 0.00 | 1014.9 | |
| 20260507162004 | 64 | 197 | 3.0 | 5.0 | 0.00 | 0.00 | 0.00 | 1014.9 | |
| 20260507161504 | 63 | 331 | 2.0 | 5.0 | 0.00 | 0.00 | 0.00 | 1014.9 | |
| 20260507161004 | 64 | 265 | 2.0 | 5.0 | 0.00 | 0.00 | 0.00 | 1014.9 | |
| 20260507160504 | 64 | 233 | 2.0 | 5.0 | 0.00 | 0.00 | 0.00 | 1015.6 | |
| 20260507160004 | 63 | 210 | 1.0 | 5.0 | 0.00 | 0.00 | 0.00 | 1015.3 | |
| 20260507155503 | 63 | 212 | 2.0 | 5.0 | 0.00 | 0.00 | 0.00 | 1015.3 | |
| 20260507155025 | 62 | 242 | 2.0 | 5.0 | 0.00 | 0.00 | 0.00 | 1015.6 | |
| 20260507154504 | 62 | 223 | 1.0 | 6.0 | 0.00 | 0.00 | 0.00 | 1015.3 | |
| 20260507154003 | 62 | 259 | 4.0 | 6.0 | 0.00 | 0.00 | 0.00 | 1015.3 | |
| 20260507153504 | 62 | 257 | 2.0 | 4.0 | 0.00 | 0.00 | 0.00 | 1015.6 | |
| 20260507153002 | 62 | 334 | 1.0 | 3.0 | 0.00 | 0.00 | 0.00 | 1015.3 | |
| 20260507152503 | 62 | 316 | 1.0 | 3.0 | 0.00 | 0.00 | 0.00 | 1015.3 | |
| 20260507152024 | 61 | 211 | 1.0 | 3.0 | 0.00 | 0.00 | 0.00 | 1015.3 | |
| 20260507151504 | 61 | 53 | 2.0 | 3.0 | 0.00 | 0.00 | 0.00 | 1015.3 | |
| 20260507151003 | 61 | 45 | 1.0 | 4.0 | 0.00 | 0.00 | 0.00 | 1015.3 | |
| 20260507150503 | 60 | 285 | 1.0 | 4.0 | 0.00 | 0.00 | 0.00 | 1015.3 | |
| 20260507150004 | 60 | 343 | 2.0 | 3.0 | 0.00 | 0.00 | 0.00 | 1015.6 | |
| 20260507145503 | 60 | 19 | 2.0 | 5.0 | 0.00 | 0.00 | 0.00 | 1015.3 | |
| 20260507145002 | 59 | 8 | 1.0 | 5.0 | 0.00 | 0.00 | 0.00 | 1015.6 | |
| 20260507144504 | 59 | 287 | 3.0 | 5.0 | 0.00 | 0.00 | 0.00 | 1016.0 | |
| 20260507144004 | 59 | 351 | 1.0 | 5.0 | 0.00 | 0.00 | 0.00 | 1015.3 | |
| 20260507143504 | 58 | 295 | 3.0 | 5.0 | 0.00 | 0.00 | 0.00 | 1014.9 | |
| 20260507143023 | 58 | 299 | 3.0 | 5.0 | 0.00 | 0.00 | 0.00 | 1014.9 | |
| 20260507142503 | 58 | 235 | 1.0 | 3.0 | 0.00 | 0.00 | 0.00 | 1015.6 | |
| 20260507142003 | 58 | 265 | 0.0 | 2.0 | 0.00 | 0.00 | 0.00 | 1015.3 | |
| 20260507141504 | 58 | 323 | 0.0 | 4.0 | 0.00 | 0.00 | 0.00 | 1015.6 | |
| 20260507141002 | 57 | 278 | 2.0 | 4.0 | 0.00 | 0.00 | 0.00 | 1014.9 | |
| 20260507140525 | 57 | 282 | 1.0 | 3.0 | 0.00 | 0.00 | 0.00 | 1015.3 | |
| 20260507140002 | 57 | 230 | 1.0 | 2.0 | 0.00 | 0.00 | 0.00 | 1014.6 | |
| 20260507135504 | 57 | 245 | 0.0 | 2.0 | 0.00 | 0.00 | 0.00 | 1015.3 | |
| 20260507135003 | 56 | 190 | 2.0 | 2.0 | 0.00 | 0.00 | 0.00 | 1014.9 | |
| 20260507134503 | 56 | 180 | 1.0 | 2.0 | 0.00 | 0.00 | 0.00 | 1014.9 | |
| 20260507134025 | 56 | 180 | 1.0 | 1.0 | 0.00 | 0.00 | 0.00 | 1014.9 | |
| 20260507133502 | 56 | 180 | 1.0 | 1.0 | 0.00 | 0.00 | 0.00 | 1014.9 | |
| 20260507133003 | 56 | 180 | 0.0 | 1.0 | 0.00 | 0.00 | 0.00 | 1015.3 | |
| 20260507132504 | 56 | 180 | 0.0 | 1.0 | 0.00 | 0.00 | 0.00 | 1014.9 | |
| 20260507132004 | 56 | 180 | 1.0 | 1.0 | 0.00 | 0.00 | 0.00 | 1014.6 | |
| 20260507131502 | 56 | 180 | 0.0 | 2.0 | 0.00 | 0.00 | 0.00 | 1014.9 | |
| 20260507131003 | 56 | 180 | 1.0 | 2.0 | 0.00 | 0.00 | 0.00 | 1015.3 | |
| 20260507130524 | 56 | 180 | 0.0 | 1.0 | 0.00 | 0.00 | 0.00 | 1015.6 | |
| 20260507130003 | 56 | 180 | 0.0 | 1.0 | 0.00 | 0.00 | 0.00 | 1015.3 | |
| 20260507125502 | 56 | 180 | 1.0 | 1.0 | 0.00 | 0.00 | 0.00 | 1014.3 | |
| 20260507125003 | 56 | 203 | 0.0 | 2.0 | 0.00 | 0.00 | 0.00 | 1015.3 | |
| 20260507124502 | 56 | 202 | 1.0 | 2.0 | 0.00 | 0.00 | 0.00 | 1015.3 | |
| 20260507124003 | 56 | 202 | 1.0 | 2.0 | 0.00 | 0.00 | 0.00 | 1014.6 | |
| 20260507123502 | 56 | 202 | 0.0 | 1.0 | 0.00 | 0.00 | 0.00 | 1014.6 | |
| 20260507123002 | 56 | 225 | 0.0 | 0.0 | 0.00 | 0.00 | 0.00 | 1014.9 | |
| 20260507122503 | 56 | 225 | 0.0 | 1.0 | 0.00 | 0.00 | 0.00 | 1014.6 | |
| 20260507122004 | 56 | 225 | 0.0 | 1.0 | 0.00 | 0.00 | 0.00 | 1014.9 | |
| 20260507121504 | 56 | 224 | 1.0 | 1.0 | 0.00 | 0.00 | 0.00 | 1014.9 | |
| 20260507121003 | 57 | 202 | 1.0 | 1.0 | 0.00 | 0.00 | 0.00 | 1014.9 | |
| 20260507120503 | 57 | 269 | 0.0 | 0.0 | 0.00 | 0.00 | 0.00 | 1014.9 | |
| 20260507120002 | 56 | 270 | 0.0 | 0.0 | 0.00 | 0.00 | 0.00 | 1014.9 | |
| 20260507115503 | 56 | 23 | 0.0 | 0.0 | 0.00 | 0.00 | 0.00 | 1014.9 | |
| 20260507115003 | 57 | 90 | 0.0 | 0.0 | 0.00 | 0.00 | 0.00 | 1014.6 | |
| 20260507114503 | 57 | 270 | 0.0 | 1.0 | 0.00 | 0.00 | 0.00 | 1014.6 | |
| 20260507114003 | 57 | 202 | 0.0 | 1.0 | 0.00 | 0.00 | 0.00 | 1014.9 | |
| 20260507113503 | 57 | 225 | 0.0 | 0.0 | 0.00 | 0.00 | 0.00 | 1014.6 | |
| 20260507113003 | 57 | 293 | 0.0 | 0.0 | 0.00 | 0.00 | 0.00 | 1015.3 | |
| 20260507112504 | 57 | 270 | 0.0 | 0.0 | 0.00 | 0.00 | 0.00 | 1015.3 | |
| 20260507112003 | 57 | 270 | 0.0 | 0.0 | 0.00 | 0.00 | 0.00 | 1015.3 | |
| 20260507111503 | 57 | 293 | 0.0 | 1.0 | 0.00 | 0.00 | 0.00 | 1015.6 | |
| 20260507111004 | 57 | 235 | 1.0 | 1.0 | 0.00 | 0.00 | 0.00 | 1015.3 | |
| 20260507110503 | 57 | 248 | 0.0 | 0.0 | 0.00 | 0.00 | 0.00 | 1015.6 | |
| 20260507110005 | 57 | 248 | 0.0 | 0.0 | 0.00 | 0.00 | 0.00 | 1015.3 | |
| 20260507105503 | 57 | 248 | 0.0 | 1.0 | 0.00 | 0.00 | 0.00 | 1015.6 | |
| 20260507105003 | 58 | 270 | 0.0 | 1.0 | 0.00 | 0.00 | 0.00 | 1016.0 | |
| 20260507104502 | 58 | 360 | 0.0 | 1.0 | 0.00 | 0.00 | 0.00 | 1016.0 | |
| 20260507104003 | 58 | 360 | 0.0 | 0.0 | 0.00 | 0.00 | 0.00 | 1015.6 | |
| 20260507103503 | 58 | 360 | 0.0 | 0.0 | 0.00 | 0.00 | 0.00 | 1015.6 | |
| 20260507103003 | 58 | 360 | 0.0 | 0.0 | 0.00 | 0.00 | 0.00 | 1015.6 |